Flag for Germany Weather past 2 weeks in Mannheim, Baden-Württemberg, Germany

Now
46 °F

Mostly cloudy.


Feels Like: 41 °F
Forecast: 31 / 60 °F
Wind: 10 mph from Northwest

Location: Baden Wurttemberg - Neuostheim

Current Time: Apr 28, 2015 at 7:19:55 AM

Latest Report: Apr 28, 2015 at 6:50 AM


Visibility: N/A

Pressure: 29.86 "Hg

Humidity: 76%

Dew point: 39 °F

Location of MannheimLocation

Historic Weather in Mannheim — Graph

°F

Mannheim temperature yesterday

Maximum temperature yesterday: 61 °F (at 10:50 AM)
Minimum temperature yesterday: 48 °F (at 8:50 PM)
Average temperature yesterday: 57 °F

Past Weeks' High & Low Weather Summary

 TemperatureHumidityPressure
High79 °F (Apr 15, 4:20 PM)100% (Apr 27, 6:20 AM)30.45 "Hg (Apr 27, 6:20 AM)
Low37 °F (Apr 23, 5:50 AM)19% (Apr 15, 8:20 PM)29.56 "Hg (Apr 27, 6:20 AM)
Average59 °F50%30.08 "Hg
* Reported Apr 13 6:20 AM — Apr 28 6:20 AM, Mannheim, Weather by CustomWeather, © 2015

Note: Actual official high and low records may vary slightly from our data, if they occured in-between our weather recording intervals... More about our weather records

Advertising

Mannheim weather history for previous 24 hours

 ConditionsComfort  
Time TempWeatherWind HumidityBarometerVisibility
6:20 AM
Tue, Apr 28
46 °FOvercast.10 mph82%29.83 "HgN/A
5:50 AM46 °FOvercast.10 mph82%29.80 "HgN/A
5:20 AM46 °FOvercast.10 mph82%29.80 "HgN/A
8:50 PM
Mon, Apr 27
48 °FLight rain. Low clouds.15 mph94%29.65 "HgN/A
8:20 PM50 °FLight rain. Low clouds.15 mph88%29.65 "HgN/A
7:50 PM52 °FLight rain. Mostly cloudy.14 mph88%29.62 "HgN/A
7:20 PM52 °FLight rain. Overcast.18 mph88%29.62 "HgN/A
6:50 PM54 °FOvercast.15 mph88%29.62 "HgN/A
6:20 PM54 °FOvercast.15 mph88%29.62 "HgN/A
5:50 PM55 °FOvercast.15 mph82%29.62 "HgN/A
5:20 PM55 °FOvercast.13 mph88%29.62 "HgN/A
4:50 PM57 °FMore clouds than sun.14 mph82%29.59 "HgN/A
4:20 PM57 °FBroken clouds.14 mph82%29.59 "HgN/A
3:50 PM59 °FBroken clouds.14 mph77%29.59 "HgN/A
3:20 PM61 °FPartly sunny.12 mph77%29.59 "HgN/A
2:50 PM61 °FBroken clouds.8 mph77%29.59 "HgN/A
2:20 PM61 °FPartly sunny.9 mph77%29.59 "HgN/A
1:50 PM61 °FPartly sunny.8 mph77%29.59 "HgN/A
1:20 PM61 °FPartly sunny.7 mph77%29.59 "HgN/A
12:50 PM61 °FBroken clouds.7 mph72%29.62 "HgN/A
12:20 PM61 °FPartly sunny.8 mph77%29.62 "HgN/A
11:50 AM61 °FPartly sunny.7 mph77%29.62 "HgN/A
11:20 AM61 °FScattered showers. Partly sunny.7 mph83%29.62 "HgN/A
10:50 AM61 °FScattered showers. Partly sunny.6 mph77%29.59 "HgN/A
10:20 AM59 °FScattered showers. Partly sunny.5 mph88%29.59 "HgN/A
9:50 AM59 °FScattered showers. Broken clouds.5 mph88%29.59 "HgN/A
9:20 AM59 °FScattered showers. Broken clouds.3 mph100%29.59 "HgN/A
8:50 AM57 °FPartly sunny.3 mph100%29.59 "HgN/A
8:20 AM57 °FBroken clouds.3 mph100%29.59 "HgN/A
7:50 AM57 °FPartly sunny.1 mph100%29.59 "HgN/A
7:20 AM57 °FPartly sunny.3 mph100%29.59 "HgN/A
Weather by CustomWeather, © 2015

See weather overviewHow to use our weather pages